Year,Month,Day,Hour,Minute,Value (Times are PST for temperature in C)
2013,06,14,00,00,15.60
2013,06,14,00,01,15.60
2013,06,14,00,02,15.60
2013,06,14,00,03,15.60
2013,06,14,00,04,15.60
2013,06,14,00,05,15.60
2013,06,14,00,06,15.60
2013,06,14,00,07,15.60
2013,06,14,00,08,15.60
2013,06,14,00,09,15.60
2013,06,14,00,10,15.60
2013,06,14,00,11,15.60
2013,06,14,00,12,15.60
2013,06,14,00,13,15.60
2013,06,14,00,14,15.50
2013,06,14,00,15,15.50
2013,06,14,00,16,15.50
2013,06,14,00,17,15.50
2013,06,14,00,18,15.50
2013,06,14,00,19,15.50
2013,06,14,00,20,15.50
2013,06,14,00,21,15.40
2013,06,14,00,22,15.40
2013,06,14,00,23,15.40
2013,06,14,00,24,15.40
2013,06,14,00,25,15.40
2013,06,14,00,26,15.40
2013,06,14,00,27,15.40
2013,06,14,00,28,15.40
2013,06,14,00,29,15.30
2013,06,14,00,30,15.30
2013,06,14,00,31,15.30
2013,06,14,00,32,15.30
2013,06,14,00,33,15.30
2013,06,14,00,34,15.30
2013,06,14,00,35,15.30
2013,06,14,00,36,15.30
2013,06,14,00,37,15.20
2013,06,14,00,38,15.20
2013,06,14,00,39,15.20
2013,06,14,00,40,15.20
2013,06,14,00,41,15.20
2013,06,14,00,42,15.20
2013,06,14,00,43,15.20
2013,06,14,00,44,15.10
2013,06,14,00,45,15.10
2013,06,14,00,46,15.10
2013,06,14,00,47,15.10
2013,06,14,00,48,15.10
2013,06,14,00,49,15.10
2013,06,14,00,50,15.10
2013,06,14,00,51,15.10
2013,06,14,00,52,15.10
2013,06,14,00,53,15.10
2013,06,14,00,54,15.10
2013,06,14,00,55,15.10
2013,06,14,00,56,15.10
2013,06,14,00,57,15.10
2013,06,14,00,58,15.10
2013,06,14,00,59,15.00
2013,06,14,01,00,15.00
2013,06,14,01,01,15.00
2013,06,14,01,02,15.00
2013,06,14,01,03,15.00
2013,06,14,01,04,15.00
2013,06,14,01,05,14.90
2013,06,14,01,06,14.90
2013,06,14,01,07,14.90
2013,06,14,01,08,14.90
2013,06,14,01,09,14.90
2013,06,14,01,10,14.90
2013,06,14,01,11,14.90
2013,06,14,01,12,14.90
2013,06,14,01,13,14.80
2013,06,14,01,14,14.80
2013,06,14,01,15,14.80
2013,06,14,01,16,14.80
2013,06,14,01,17,14.80
2013,06,14,01,18,14.70
2013,06,14,01,19,14.70
2013,06,14,01,20,14.70
2013,06,14,01,21,14.70
2013,06,14,01,22,14.70
2013,06,14,01,23,14.60
2013,06,14,01,24,14.60
2013,06,14,01,25,14.60
2013,06,14,01,26,14.60
2013,06,14,01,27,14.50
2013,06,14,01,28,14.50
2013,06,14,01,29,14.50
2013,06,14,01,30,14.40
2013,06,14,01,31,14.40
2013,06,14,01,32,14.40
2013,06,14,01,33,14.30
2013,06,14,01,34,14.30
2013,06,14,01,35,14.30
2013,06,14,01,36,14.30
2013,06,14,01,37,14.30
2013,06,14,01,38,14.30
2013,06,14,01,39,14.20
2013,06,14,01,40,14.20
2013,06,14,01,41,14.20
2013,06,14,01,42,14.20
2013,06,14,01,43,14.10
2013,06,14,01,44,14.10
2013,06,14,01,45,14.10
2013,06,14,01,46,14.10
2013,06,14,01,47,14.10
2013,06,14,01,48,14.10
2013,06,14,01,49,14.00
2013,06,14,01,50,14.00
2013,06,14,01,51,14.00
2013,06,14,01,52,14.00
2013,06,14,01,53,13.90
2013,06,14,01,54,13.90
2013,06,14,01,55,13.90
2013,06,14,01,56,13.90
2013,06,14,01,57,13.90
2013,06,14,01,58,13.80
2013,06,14,01,59,13.80
2013,06,14,02,00,13.80
2013,06,14,02,01,13.80
2013,06,14,02,02,13.80
2013,06,14,02,03,13.80
2013,06,14,02,04,13.80
2013,06,14,02,05,13.80
2013,06,14,02,06,13.80
2013,06,14,02,07,13.80
2013,06,14,02,08,13.80
2013,06,14,02,09,13.90
2013,06,14,02,10,13.90
2013,06,14,02,11,13.90
2013,06,14,02,12,13.90
2013,06,14,02,13,13.90
2013,06,14,02,14,13.90
2013,06,14,02,15,13.90
2013,06,14,02,16,13.90
2013,06,14,02,17,13.90
2013,06,14,02,18,13.90
2013,06,14,02,19,13.90
2013,06,14,02,20,13.80
2013,06,14,02,21,13.80
2013,06,14,02,22,13.80
2013,06,14,02,23,13.80
2013,06,14,02,24,13.80
2013,06,14,02,25,13.80
2013,06,14,02,26,13.80
2013,06,14,02,27,13.80
2013,06,14,02,28,13.80
2013,06,14,02,29,13.80
2013,06,14,02,30,13.80
2013,06,14,02,31,13.80
2013,06,14,02,32,13.80
2013,06,14,02,33,13.70
2013,06,14,02,34,13.70
2013,06,14,02,35,13.70
2013,06,14,02,36,13.70
2013,06,14,02,37,13.70
2013,06,14,02,38,13.70
2013,06,14,02,39,13.60
2013,06,14,02,40,13.60
2013,06,14,02,41,13.60
2013,06,14,02,42,13.60
2013,06,14,02,43,13.60
2013,06,14,02,44,13.60
2013,06,14,02,45,13.60
2013,06,14,02,46,13.50
2013,06,14,02,47,13.50
2013,06,14,02,48,13.50
2013,06,14,02,49,13.50
2013,06,14,02,50,13.50
2013,06,14,02,51,13.50
2013,06,14,02,52,13.50
2013,06,14,02,53,13.50
2013,06,14,02,54,13.50
2013,06,14,02,55,13.50
2013,06,14,02,56,13.50
2013,06,14,02,57,13.50
2013,06,14,02,58,13.50
2013,06,14,02,59,13.50
2013,06,14,03,00,13.50
2013,06,14,03,01,13.40
2013,06,14,03,02,13.40
2013,06,14,03,03,13.40
2013,06,14,03,04,13.40
2013,06,14,03,05,13.40
2013,06,14,03,06,13.40
2013,06,14,03,07,13.40
2013,06,14,03,08,13.40
2013,06,14,03,09,13.40
2013,06,14,03,10,13.40
2013,06,14,03,11,13.40
2013,06,14,03,12,13.40
2013,06,14,03,13,13.40
2013,06,14,03,14,13.30
2013,06,14,03,15,13.30
2013,06,14,03,16,13.30
2013,06,14,03,17,13.30
2013,06,14,03,18,13.30
2013,06,14,03,19,13.30
2013,06,14,03,20,13.30
2013,06,14,03,21,13.30
2013,06,14,03,22,13.30
2013,06,14,03,23,13.30
2013,06,14,03,24,13.30
2013,06,14,03,25,13.30
2013,06,14,03,26,13.30
2013,06,14,03,27,13.30
2013,06,14,03,28,13.30
2013,06,14,03,29,13.30
2013,06,14,03,30,13.30
2013,06,14,03,31,13.30
2013,06,14,03,32,13.30
2013,06,14,03,33,13.30
2013,06,14,03,34,13.30
2013,06,14,03,35,13.30
2013,06,14,03,36,13.30
2013,06,14,03,37,13.20
2013,06,14,03,38,13.20
2013,06,14,03,39,13.20
2013,06,14,03,40,13.20
2013,06,14,03,41,13.20
2013,06,14,03,42,13.20
2013,06,14,03,43,13.20
2013,06,14,03,44,13.20
2013,06,14,03,45,13.20
2013,06,14,03,46,13.20
2013,06,14,03,47,13.20
2013,06,14,03,48,13.20
2013,06,14,03,49,13.20
2013,06,14,03,50,13.20
2013,06,14,03,51,13.20
2013,06,14,03,52,13.20
2013,06,14,03,53,13.20
2013,06,14,03,54,13.20
2013,06,14,03,55,13.20
2013,06,14,03,56,13.20
2013,06,14,03,57,13.20
2013,06,14,03,58,13.20
2013,06,14,03,59,13.20
2013,06,14,04,00,13.20
2013,06,14,04,01,13.20
2013,06,14,04,02,13.20
2013,06,14,04,03,13.20
2013,06,14,04,04,13.30
2013,06,14,04,05,13.30
2013,06,14,04,06,13.30
2013,06,14,04,07,13.30
2013,06,14,04,08,13.30
2013,06,14,04,09,13.30
2013,06,14,04,10,13.30
2013,06,14,04,11,13.30
2013,06,14,04,12,13.30
2013,06,14,04,13,13.30
2013,06,14,04,14,13.30
2013,06,14,04,15,13.30
2013,06,14,04,16,13.30
2013,06,14,04,17,13.30
2013,06,14,04,18,13.30
2013,06,14,04,19,13.30
2013,06,14,04,20,13.30
2013,06,14,04,21,13.40
2013,06,14,04,22,13.40
2013,06,14,04,23,13.40
2013,06,14,04,24,13.40
2013,06,14,04,25,13.40
2013,06,14,04,26,13.40
2013,06,14,04,27,13.40
2013,06,14,04,28,13.40
2013,06,14,04,29,13.40
2013,06,14,04,30,13.40
2013,06,14,04,31,13.50
2013,06,14,04,32,13.50
2013,06,14,04,33,13.50
2013,06,14,04,34,13.50
2013,06,14,04,35,13.50
2013,06,14,04,36,13.50
2013,06,14,04,37,13.50
2013,06,14,04,38,13.50
2013,06,14,04,39,13.50
2013,06,14,04,40,13.50
2013,06,14,04,41,13.50
2013,06,14,04,42,13.50
2013,06,14,04,43,13.50
2013,06,14,04,44,13.40
2013,06,14,04,45,13.40
2013,06,14,04,46,13.40
2013,06,14,04,47,13.40
2013,06,14,04,48,13.40
2013,06,14,04,49,13.40
2013,06,14,04,50,13.40
2013,06,14,04,51,13.40
2013,06,14,04,52,13.40
2013,06,14,04,53,13.40
2013,06,14,04,54,13.40
2013,06,14,04,55,13.40
2013,06,14,04,56,13.40
2013,06,14,04,57,13.40
2013,06,14,04,58,13.40
2013,06,14,04,59,13.40
2013,06,14,05,00,13.40
2013,06,14,05,01,13.40
2013,06,14,05,02,13.40
2013,06,14,05,03,13.30
2013,06,14,05,04,13.30
2013,06,14,05,05,13.40
2013,06,14,05,06,13.30
2013,06,14,05,07,13.30
2013,06,14,05,08,13.30
2013,06,14,05,09,13.30
2013,06,14,05,10,13.30
2013,06,14,05,11,13.30
2013,06,14,05,12,13.30
2013,06,14,05,13,13.30
2013,06,14,05,14,13.30
2013,06,14,05,15,13.30
2013,06,14,05,16,13.30
2013,06,14,05,17,13.30
2013,06,14,05,18,13.30
2013,06,14,05,19,13.30
2013,06,14,05,20,13.30
2013,06,14,05,21,13.30
2013,06,14,05,22,13.30
2013,06,14,05,23,13.30
2013,06,14,05,24,13.30
2013,06,14,05,25,13.30
2013,06,14,05,26,13.30
2013,06,14,05,27,13.30
2013,06,14,05,28,13.30
2013,06,14,05,29,13.30
2013,06,14,05,30,13.30
2013,06,14,05,31,13.30
2013,06,14,05,32,13.30
2013,06,14,05,33,13.20
2013,06,14,05,34,13.20
2013,06,14,05,35,13.20
2013,06,14,05,36,13.20
2013,06,14,05,37,13.20
2013,06,14,05,38,13.20
2013,06,14,05,39,13.10
2013,06,14,05,40,13.10
2013,06,14,05,41,13.10
2013,06,14,05,42,13.10
2013,06,14,05,43,13.10
2013,06,14,05,44,13.10
2013,06,14,05,45,13.10
2013,06,14,05,46,13.10
2013,06,14,05,47,13.00
2013,06,14,05,48,13.00
2013,06,14,05,49,13.00
2013,06,14,05,50,12.90
2013,06,14,05,51,12.90
2013,06,14,05,52,12.90
2013,06,14,05,53,12.90
2013,06,14,05,54,12.90
2013,06,14,05,55,12.90
2013,06,14,05,56,12.90
2013,06,14,05,57,12.80
2013,06,14,05,58,12.90
2013,06,14,05,59,12.80
2013,06,14,06,00,12.80
2013,06,14,06,01,12.80
2013,06,14,06,02,12.80
2013,06,14,06,03,12.80
2013,06,14,06,04,12.80
2013,06,14,06,05,12.80
2013,06,14,06,06,12.80
2013,06,14,06,07,12.80
2013,06,14,06,08,12.80
2013,06,14,06,09,12.80
2013,06,14,06,10,12.80
2013,06,14,06,11,12.70
2013,06,14,06,12,12.70
2013,06,14,06,13,12.70
2013,06,14,06,14,12.70
2013,06,14,06,15,12.70
2013,06,14,06,16,12.70
2013,06,14,06,17,12.70
2013,06,14,06,18,12.70
2013,06,14,06,19,12.80
2013,06,14,06,20,12.80
2013,06,14,06,21,12.80
2013,06,14,06,22,12.80
2013,06,14,06,23,12.80
2013,06,14,06,24,12.80
2013,06,14,06,25,12.80
2013,06,14,06,26,12.80
2013,06,14,06,27,12.80
2013,06,14,06,28,12.80
2013,06,14,06,29,12.80
2013,06,14,06,30,12.80
2013,06,14,06,31,12.80
2013,06,14,06,32,12.90
2013,06,14,06,33,12.90
2013,06,14,06,34,12.90
2013,06,14,06,35,12.90
2013,06,14,06,36,12.90
2013,06,14,06,37,12.90
2013,06,14,06,38,13.00
2013,06,14,06,39,13.00
2013,06,14,06,40,13.00
2013,06,14,06,41,13.00
2013,06,14,06,42,13.10
2013,06,14,06,43,13.10
2013,06,14,06,44,13.20
2013,06,14,06,45,13.30
2013,06,14,06,46,13.30
2013,06,14,06,47,13.40
2013,06,14,06,48,13.50
2013,06,14,06,49,13.50
2013,06,14,06,50,13.60
2013,06,14,06,51,13.70
2013,06,14,06,52,13.70
2013,06,14,06,53,13.80
2013,06,14,06,54,13.80
2013,06,14,06,55,13.90
2013,06,14,06,56,14.00
2013,06,14,06,57,14.00
2013,06,14,06,58,14.10
2013,06,14,06,59,14.20
2013,06,14,07,00,14.20
2013,06,14,07,01,14.20
2013,06,14,07,02,14.20
2013,06,14,07,03,14.30
2013,06,14,07,04,14.30
2013,06,14,07,05,14.30
2013,06,14,07,06,14.30
2013,06,14,07,07,14.30
2013,06,14,07,08,14.30
2013,06,14,07,09,14.30
2013,06,14,07,10,14.30
2013,06,14,07,11,14.30
2013,06,14,07,12,14.30
2013,06,14,07,13,14.20
2013,06,14,07,14,14.20
2013,06,14,07,15,14.20
2013,06,14,07,16,14.20
2013,06,14,07,17,14.20
2013,06,14,07,18,14.20
2013,06,14,07,19,14.20
2013,06,14,07,20,14.20
2013,06,14,07,21,14.20
2013,06,14,07,22,14.20
2013,06,14,07,23,14.20
2013,06,14,07,24,14.30
2013,06,14,07,25,14.20
2013,06,14,07,26,14.20
2013,06,14,07,27,14.20
2013,06,14,07,28,14.20
2013,06,14,07,29,14.20
2013,06,14,07,30,14.20
2013,06,14,07,31,14.20
2013,06,14,07,32,14.20
2013,06,14,07,33,14.20
2013,06,14,07,34,14.30
2013,06,14,07,35,14.30
2013,06,14,07,36,14.30
2013,06,14,07,37,14.30
2013,06,14,07,38,14.30
2013,06,14,07,39,14.30
2013,06,14,07,40,14.30
2013,06,14,07,41,14.30
2013,06,14,07,42,14.30
2013,06,14,07,43,14.30
2013,06,14,07,44,14.40
2013,06,14,07,45,14.30
2013,06,14,07,46,14.30
2013,06,14,07,47,14.30
2013,06,14,07,48,14.30
2013,06,14,07,49,14.40
2013,06,14,07,50,14.40
2013,06,14,07,51,14.40
2013,06,14,07,52,14.40
2013,06,14,07,53,14.40
2013,06,14,07,54,14.40
2013,06,14,07,55,14.40
2013,06,14,07,56,14.40
2013,06,14,07,57,14.40
2013,06,14,07,58,14.50
2013,06,14,07,59,14.50
2013,06,14,08,00,14.50
2013,06,14,08,01,14.50
2013,06,14,08,02,14.50
2013,06,14,08,03,14.50
2013,06,14,08,04,14.50
2013,06,14,08,05,14.50
2013,06,14,08,06,14.50
2013,06,14,08,07,14.40
2013,06,14,08,08,14.40
2013,06,14,08,09,14.40
2013,06,14,08,10,14.40
2013,06,14,08,11,14.40
2013,06,14,08,12,14.40
2013,06,14,08,13,14.40
2013,06,14,08,14,14.40
2013,06,14,08,15,14.40
2013,06,14,08,16,14.40
2013,06,14,08,17,14.40
2013,06,14,08,18,14.40
2013,06,14,08,19,14.40
2013,06,14,08,20,14.40
2013,06,14,08,21,14.50
2013,06,14,08,22,14.50
2013,06,14,08,23,14.50
2013,06,14,08,24,14.60
2013,06,14,08,25,14.60
2013,06,14,08,26,14.60
2013,06,14,08,27,14.60
2013,06,14,08,28,14.70
2013,06,14,08,29,14.70
2013,06,14,08,30,14.70
2013,06,14,08,31,14.70
2013,06,14,08,32,14.70
2013,06,14,08,33,14.80
2013,06,14,08,34,14.80
2013,06,14,08,35,14.80
2013,06,14,08,36,14.80
2013,06,14,08,37,14.80
2013,06,14,08,38,14.80
2013,06,14,08,39,14.80
2013,06,14,08,40,14.90
2013,06,14,08,41,14.90
2013,06,14,08,42,14.90
2013,06,14,08,43,14.80
2013,06,14,08,44,14.80
2013,06,14,08,45,14.80
2013,06,14,08,46,14.70
2013,06,14,08,47,14.70
2013,06,14,08,48,14.60
2013,06,14,08,49,14.60
2013,06,14,08,50,14.50
2013,06,14,08,51,14.50
2013,06,14,08,52,14.50
2013,06,14,08,53,14.50
2013,06,14,08,54,14.50
2013,06,14,08,55,14.50
2013,06,14,08,56,14.50
2013,06,14,08,57,14.50
2013,06,14,08,58,14.50
2013,06,14,08,59,14.50
2013,06,14,09,00,14.50
2013,06,14,09,01,14.50
2013,06,14,09,02,14.50
2013,06,14,09,03,14.40
2013,06,14,09,04,14.40
2013,06,14,09,05,14.50
2013,06,14,09,06,14.50
2013,06,14,09,07,14.50
2013,06,14,09,08,14.60
2013,06,14,09,09,14.60
2013,06,14,09,10,14.70
2013,06,14,09,11,14.70
2013,06,14,09,12,14.80
2013,06,14,09,13,14.80
2013,06,14,09,14,14.80
2013,06,14,09,15,14.80
2013,06,14,09,16,14.90
2013,06,14,09,17,14.90
2013,06,14,09,18,14.90
2013,06,14,09,19,14.90
2013,06,14,09,20,14.90
2013,06,14,09,21,14.90
2013,06,14,09,22,15.00
2013,06,14,09,23,15.00
2013,06,14,09,24,15.10
2013,06,14,09,25,15.10
2013,06,14,09,26,15.10
2013,06,14,09,27,15.20
2013,06,14,09,28,15.20
2013,06,14,09,29,15.20
2013,06,14,09,30,15.30
2013,06,14,09,31,15.30
2013,06,14,09,32,15.40
2013,06,14,09,33,15.40
2013,06,14,09,34,15.50
2013,06,14,09,35,15.50
2013,06,14,09,36,15.50
2013,06,14,09,37,15.40
2013,06,14,09,38,15.40
2013,06,14,09,39,15.40
2013,06,14,09,40,15.40
2013,06,14,09,41,15.40
2013,06,14,09,42,15.40
2013,06,14,09,43,15.40
2013,06,14,09,44,15.40
2013,06,14,09,45,15.50
2013,06,14,09,46,15.50
2013,06,14,09,47,15.60
2013,06,14,09,48,15.60
2013,06,14,09,49,15.60
2013,06,14,09,50,15.70
2013,06,14,09,51,15.70
2013,06,14,09,52,15.70
2013,06,14,09,53,15.70
2013,06,14,09,54,15.60
2013,06,14,09,55,15.60
2013,06,14,09,56,15.60
2013,06,14,09,57,15.70
2013,06,14,09,58,15.70
2013,06,14,09,59,15.70
2013,06,14,10,00,15.70
2013,06,14,10,01,15.80
2013,06,14,10,02,15.80
2013,06,14,10,03,15.80
2013,06,14,10,04,15.80
2013,06,14,10,05,15.80
2013,06,14,10,06,15.80
2013,06,14,10,07,15.80
2013,06,14,10,08,15.90
2013,06,14,10,09,15.90
2013,06,14,10,10,15.90
2013,06,14,10,11,16.00
2013,06,14,10,12,16.00
2013,06,14,10,13,16.00
2013,06,14,10,14,16.00
2013,06,14,10,15,16.00
2013,06,14,10,16,16.10
2013,06,14,10,17,16.10
2013,06,14,10,18,16.10
2013,06,14,10,19,16.10
2013,06,14,10,20,16.20
2013,06,14,10,21,16.20
2013,06,14,10,22,16.30
2013,06,14,10,23,16.40
2013,06,14,10,24,16.50
2013,06,14,10,25,16.60
2013,06,14,10,26,16.60
2013,06,14,10,27,16.70
2013,06,14,10,28,16.60
2013,06,14,10,29,16.50
2013,06,14,10,30,16.50
2013,06,14,10,31,16.40
2013,06,14,10,32,16.40
2013,06,14,10,33,16.30
2013,06,14,10,34,16.30
2013,06,14,10,35,16.30
2013,06,14,10,36,16.30
2013,06,14,10,37,16.30
2013,06,14,10,38,16.40
2013,06,14,10,39,16.40
2013,06,14,10,40,16.40
2013,06,14,10,41,16.40
2013,06,14,10,42,16.40
2013,06,14,10,43,16.40
2013,06,14,10,44,16.40
2013,06,14,10,45,16.40
2013,06,14,10,46,16.40
2013,06,14,10,47,16.40
2013,06,14,10,48,16.40
2013,06,14,10,49,16.40
2013,06,14,10,50,16.40
2013,06,14,10,51,16.40
2013,06,14,10,52,16.40
2013,06,14,10,53,16.40
2013,06,14,10,54,16.40
2013,06,14,10,55,16.40
2013,06,14,10,56,16.40
2013,06,14,10,57,16.40
2013,06,14,10,58,16.30
2013,06,14,10,59,16.30
2013,06,14,11,00,16.30
2013,06,14,11,01,16.30
2013,06,14,11,02,16.30
2013,06,14,11,03,16.40
2013,06,14,11,04,16.50
2013,06,14,11,05,16.60
2013,06,14,11,06,16.60
2013,06,14,11,07,16.70
2013,06,14,11,08,16.80
2013,06,14,11,09,16.80
2013,06,14,11,10,16.90
2013,06,14,11,11,16.90
2013,06,14,11,12,16.90
2013,06,14,11,13,16.90
2013,06,14,11,14,16.90
2013,06,14,11,15,16.80
2013,06,14,11,16,16.70
2013,06,14,11,17,16.60
2013,06,14,11,18,16.60
2013,06,14,11,19,16.60
2013,06,14,11,20,16.60
2013,06,14,11,21,16.60
2013,06,14,11,22,16.60
2013,06,14,11,23,16.60
2013,06,14,11,24,16.60
2013,06,14,11,25,16.60
2013,06,14,11,26,16.50
2013,06,14,11,27,16.50
2013,06,14,11,28,16.50
2013,06,14,11,29,16.60
2013,06,14,11,30,16.60
2013,06,14,11,31,16.60
2013,06,14,11,32,16.70
2013,06,14,11,33,16.80
2013,06,14,11,34,16.80
2013,06,14,11,35,16.90
2013,06,14,11,36,17.00
2013,06,14,11,37,17.00
2013,06,14,11,38,17.00
2013,06,14,11,39,17.10
2013,06,14,11,40,17.00
2013,06,14,11,41,17.00
2013,06,14,11,42,16.90
2013,06,14,11,43,16.80
2013,06,14,11,44,16.80
2013,06,14,11,45,16.70
2013,06,14,11,46,16.70
2013,06,14,11,47,16.70
2013,06,14,11,48,16.60
2013,06,14,11,49,16.50
2013,06,14,11,50,16.50
2013,06,14,11,51,16.50
2013,06,14,11,52,16.40
2013,06,14,11,53,16.40
2013,06,14,11,54,16.40
2013,06,14,11,55,16.30
2013,06,14,11,56,16.30
2013,06,14,11,57,16.30
2013,06,14,11,58,16.30
2013,06,14,11,59,16.30
2013,06,14,12,00,16.30
2013,06,14,12,01,16.30
2013,06,14,12,02,16.40
2013,06,14,12,03,16.50
2013,06,14,12,04,16.50
2013,06,14,12,05,16.60
2013,06,14,12,06,16.70
2013,06,14,12,07,16.80
2013,06,14,12,08,16.80
2013,06,14,12,09,16.80
2013,06,14,12,10,16.80
2013,06,14,12,11,16.80
2013,06,14,12,12,16.80
2013,06,14,12,13,16.80
2013,06,14,12,14,16.90
2013,06,14,12,15,17.00
2013,06,14,12,16,17.10
2013,06,14,12,17,17.10
2013,06,14,12,18,17.10
2013,06,14,12,19,17.10
2013,06,14,12,20,17.20
2013,06,14,12,21,17.20
2013,06,14,12,22,17.30
2013,06,14,12,23,17.30
2013,06,14,12,24,17.30
2013,06,14,12,25,17.30
2013,06,14,12,26,17.30
2013,06,14,12,27,17.40
2013,06,14,12,28,17.40
2013,06,14,12,29,17.40
2013,06,14,12,30,17.40
2013,06,14,12,31,17.40
2013,06,14,12,32,17.40
2013,06,14,12,33,17.40
2013,06,14,12,34,17.40
2013,06,14,12,35,17.40
2013,06,14,12,36,17.40
2013,06,14,12,37,17.40
2013,06,14,12,38,17.30
2013,06,14,12,39,17.30
2013,06,14,12,40,17.30
2013,06,14,12,41,17.30
2013,06,14,12,42,17.40
2013,06,14,12,43,17.40
2013,06,14,12,44,17.40
2013,06,14,12,45,17.40
2013,06,14,12,46,17.40
2013,06,14,12,47,17.40
2013,06,14,12,48,17.40
2013,06,14,12,49,17.40
2013,06,14,12,50,17.50
2013,06,14,12,51,17.50
2013,06,14,12,52,17.60
2013,06,14,12,53,17.60
2013,06,14,12,54,17.60
2013,06,14,12,55,17.60
2013,06,14,12,56,17.60
2013,06,14,12,57,17.60
2013,06,14,12,58,17.70
2013,06,14,12,59,17.70
2013,06,14,13,00,17.70
2013,06,14,13,01,17.60
2013,06,14,13,02,17.50
2013,06,14,13,03,17.40
2013,06,14,13,04,17.40
2013,06,14,13,05,17.30
2013,06,14,13,06,17.20
2013,06,14,13,07,17.20
2013,06,14,13,08,17.20
2013,06,14,13,09,17.30
2013,06,14,13,10,17.30
2013,06,14,13,11,17.20
2013,06,14,13,12,17.10
2013,06,14,13,13,17.10
2013,06,14,13,14,17.10
2013,06,14,13,15,17.10
2013,06,14,13,16,17.00
2013,06,14,13,17,17.00
2013,06,14,13,18,16.90
2013,06,14,13,19,16.90
2013,06,14,13,20,16.90
2013,06,14,13,21,16.90
2013,06,14,13,22,17.00
2013,06,14,13,23,17.20
2013,06,14,13,24,17.30
2013,06,14,13,25,17.30
2013,06,14,13,26,17.30
2013,06,14,13,27,17.40
2013,06,14,13,28,17.30
2013,06,14,13,29,17.20
2013,06,14,13,30,17.20
2013,06,14,13,31,17.20
2013,06,14,13,32,17.20
2013,06,14,13,33,17.30
2013,06,14,13,34,17.40
2013,06,14,13,35,17.40
2013,06,14,13,36,17.40
2013,06,14,13,37,17.30
2013,06,14,13,38,17.20
2013,06,14,13,39,17.10
2013,06,14,13,40,17.10
2013,06,14,13,41,17.10
2013,06,14,13,42,17.20
2013,06,14,13,43,17.30
2013,06,14,13,44,17.30
2013,06,14,13,45,17.30
2013,06,14,13,46,17.30
2013,06,14,13,47,17.30
2013,06,14,13,48,17.30
2013,06,14,13,49,17.40
2013,06,14,13,50,17.40
2013,06,14,13,51,17.50
2013,06,14,13,52,17.60
2013,06,14,13,53,17.70
2013,06,14,13,54,17.80
2013,06,14,13,55,17.90
2013,06,14,13,56,17.70
2013,06,14,13,57,17.60
2013,06,14,13,58,17.50
2013,06,14,13,59,17.40
2013,06,14,14,00,17.30
2013,06,14,14,01,17.30
2013,06,14,14,02,17.30
2013,06,14,14,03,17.30
2013,06,14,14,04,17.30
2013,06,14,14,05,17.30
2013,06,14,14,06,17.30
2013,06,14,14,07,17.30
2013,06,14,14,08,17.30
2013,06,14,14,09,17.20
2013,06,14,14,10,17.10
2013,06,14,14,11,17.00
2013,06,14,14,12,17.00
2013,06,14,14,13,16.90
2013,06,14,14,14,17.00
2013,06,14,14,15,17.00
2013,06,14,14,16,17.00
2013,06,14,14,17,17.00
2013,06,14,14,18,17.00
2013,06,14,14,19,16.90
2013,06,14,14,20,16.90
2013,06,14,14,21,16.80
2013,06,14,14,22,16.90
2013,06,14,14,23,16.90
2013,06,14,14,24,17.00
2013,06,14,14,25,17.00
2013,06,14,14,26,17.10
2013,06,14,14,27,17.10
2013,06,14,14,28,17.20
2013,06,14,14,29,17.20
2013,06,14,14,30,17.20
2013,06,14,14,31,17.20
2013,06,14,14,32,17.20
2013,06,14,14,33,17.20
2013,06,14,14,34,17.10
2013,06,14,14,35,17.00
2013,06,14,14,36,17.00
2013,06,14,14,37,16.90
2013,06,14,14,38,16.90
2013,06,14,14,39,17.00
2013,06,14,14,40,17.00
2013,06,14,14,41,17.00
2013,06,14,14,42,17.10
2013,06,14,14,43,17.10
2013,06,14,14,44,17.20
2013,06,14,14,45,17.20
2013,06,14,14,46,17.30
2013,06,14,14,47,17.30
2013,06,14,14,48,17.30
2013,06,14,14,49,17.30
2013,06,14,14,50,17.40
2013,06,14,14,51,17.30
2013,06,14,14,52,17.30
2013,06,14,14,53,17.20
2013,06,14,14,54,17.20
2013,06,14,14,55,17.20
2013,06,14,14,56,17.20
2013,06,14,14,57,17.20
2013,06,14,14,58,17.30
2013,06,14,14,59,17.30
2013,06,14,15,00,17.30
2013,06,14,15,01,17.40
2013,06,14,15,02,17.40
2013,06,14,15,03,17.40
2013,06,14,15,04,17.40
2013,06,14,15,05,17.30
2013,06,14,15,06,17.30
2013,06,14,15,07,17.30
2013,06,14,15,08,17.40
2013,06,14,15,09,17.50
2013,06,14,15,10,17.50
2013,06,14,15,11,17.50
2013,06,14,15,12,17.60
2013,06,14,15,13,17.70
2013,06,14,15,14,17.80
2013,06,14,15,15,17.90
2013,06,14,15,16,17.90
2013,06,14,15,17,17.80
2013,06,14,15,18,17.70
2013,06,14,15,19,17.70
2013,06,14,15,20,17.70
2013,06,14,15,21,17.60
2013,06,14,15,22,17.60
2013,06,14,15,23,17.60
2013,06,14,15,24,17.50
2013,06,14,15,25,17.50
2013,06,14,15,26,17.40
2013,06,14,15,27,17.40
2013,06,14,15,28,17.30
2013,06,14,15,29,17.30
2013,06,14,15,30,17.20
2013,06,14,15,31,17.10
2013,06,14,15,32,17.10
2013,06,14,15,33,17.10
2013,06,14,15,34,17.20
2013,06,14,15,35,17.10
2013,06,14,15,36,17.10
2013,06,14,15,37,17.00
2013,06,14,15,38,16.90
2013,06,14,15,39,16.90
2013,06,14,15,40,16.80
2013,06,14,15,41,16.80
2013,06,14,15,42,16.90
2013,06,14,15,43,16.90
2013,06,14,15,44,17.00
2013,06,14,15,45,17.10
2013,06,14,15,46,17.10
2013,06,14,15,47,17.10
2013,06,14,15,48,17.10
2013,06,14,15,49,17.20
2013,06,14,15,50,17.20
2013,06,14,15,51,17.30
2013,06,14,15,52,17.30
2013,06,14,15,53,17.40
2013,06,14,15,54,17.50
2013,06,14,15,55,17.50
2013,06,14,15,56,17.50
2013,06,14,15,57,17.60
2013,06,14,15,58,17.60
2013,06,14,15,59,17.60
2013,06,14,16,00,17.50
2013,06,14,16,01,17.40
2013,06,14,16,02,17.40
2013,06,14,16,03,17.30
2013,06,14,16,04,17.30
2013,06,14,16,05,17.20
2013,06,14,16,06,17.20
2013,06,14,16,07,17.20
2013,06,14,16,08,17.20
2013,06,14,16,09,17.20
2013,06,14,16,10,17.10
2013,06,14,16,11,17.10
2013,06,14,16,12,17.20
2013,06,14,16,13,17.20
2013,06,14,16,14,17.20
2013,06,14,16,15,17.20
2013,06,14,16,16,17.20
2013,06,14,16,17,17.20
2013,06,14,16,18,17.20
2013,06,14,16,19,17.20
2013,06,14,16,20,17.20
2013,06,14,16,21,17.20
2013,06,14,16,22,17.20
2013,06,14,16,23,17.20
2013,06,14,16,24,17.10
2013,06,14,16,25,17.10
2013,06,14,16,26,17.10
2013,06,14,16,27,17.10
2013,06,14,16,28,17.10
2013,06,14,16,29,17.10
2013,06,14,16,30,17.10
2013,06,14,16,31,17.00
2013,06,14,16,32,17.00
2013,06,14,16,33,16.90
2013,06,14,16,34,16.90
2013,06,14,16,35,16.90
2013,06,14,16,36,16.80
2013,06,14,16,37,16.70
2013,06,14,16,38,16.70
2013,06,14,16,39,16.70
2013,06,14,16,40,16.70
2013,06,14,16,41,16.80
2013,06,14,16,42,16.80
2013,06,14,16,43,16.80
2013,06,14,16,44,16.80
2013,06,14,16,45,16.80
2013,06,14,16,46,16.80
2013,06,14,16,47,16.80
2013,06,14,16,48,16.80
2013,06,14,16,49,16.80
2013,06,14,16,50,16.90
2013,06,14,16,51,16.90
2013,06,14,16,52,16.90
2013,06,14,16,53,16.90
2013,06,14,16,54,16.90
2013,06,14,16,55,16.80
2013,06,14,16,56,16.80
2013,06,14,16,57,16.70
2013,06,14,16,58,16.80
2013,06,14,16,59,16.80
2013,06,14,17,00,16.80
2013,06,14,17,01,16.70
2013,06,14,17,02,16.70
2013,06,14,17,03,16.70
2013,06,14,17,04,16.70
2013,06,14,17,05,16.60
2013,06,14,17,06,16.60
2013,06,14,17,07,16.70
2013,06,14,17,08,16.70
2013,06,14,17,09,16.70
2013,06,14,17,10,16.80
2013,06,14,17,11,16.80
2013,06,14,17,12,16.80
2013,06,14,17,13,16.80
2013,06,14,17,14,16.70
2013,06,14,17,15,16.70
2013,06,14,17,16,16.80
2013,06,14,17,17,16.80
2013,06,14,17,18,16.80
2013,06,14,17,19,16.90